User: anonymous   Login
Location: Unspecified
(0.0000°N, 0.0000°E)
Time: 12:02:48
(UTC+00:00)
Language:

TDS 1 - Orbit

View from above orbital plane
View from above orbital plane
View from above satellite
View from above satellite

Ground track
Ground track

The orbit data is extracted from the following two-line orbital elements,

1 40076U 14037H   18289.16074409  .00000074  00000-0  16888-4 0  9997
2 40076  98.3859  65.8651 0005759 321.2498  38.8294 14.81438688230973
Epoch (UTC): 16 October 2018 03:51:28
Eccentricity: 0.0005759
inclination: 98.3859°
perigee height: 621 km
apogee height: 629 km
right ascension of ascending node: 65.8651°
argument of perigee: 321.2498°
revolutions per day: 14.81438688
mean anomaly at epoch: 38.8294°
orbit number at epoch: 23097

The dashed part of the orbit path shows where the satellite is in the earth's shadow,  

DLR